Time,TemperatureF,DewpointF,PressureIn,WindDirection,WindDirectionDegrees,WindSpeedMPH,WindSpeedGustMPH,Humidity,HourlyPrecipIn,Conditions,Clouds,dailyrainin,SoftwareType,DateUTC
2013-04-20 00:00:00,45.1,33.7,29.63,SW,230,4.9,5.4,64,0.00,,SCT080,0.00,VWS V14.01,2013-04-20 07:00:00,
2013-04-20 00:05:00,45.0,33.5,29.63,WSW,243,5.4,5.4,64,0.00,,SCT080,0.00,VWS V14.01,2013-04-20 07:05:00,
2013-04-20 00:10:00,45.0,33.1,29.63,SW,233,6.7,6.7,63,0.00,,SCT080,0.00,VWS V14.01,2013-04-20 07:10:00,
2013-04-20 00:15:00,45.1,33.3,29.63,WSW,247,7.6,8.1,63,0.00,,SCT080,0.00,VWS V14.01,2013-04-20 07:15:00,
2013-04-20 00:20:00,45.1,32.9,29.63,WSW,244,6.7,8.7,62,0.00,,SCT080,0.00,VWS V14.01,2013-04-20 07:20:00,
2013-04-20 00:25:00,45.3,33.1,29.66,SW,232,4.0,6.3,62,0.00,,SCT080,0.00,VWS V14.01,2013-04-20 07:25:00,
2013-04-20 00:30:00,45.3,32.7,29.66,WSW,237,4.5,4.9,61,0.00,,SCT080,0.00,VWS V14.01,2013-04-20 07:30:00,
2013-04-20 00:35:00,45.3,32.7,29.66,SW,235,6.3,6.3,61,0.00,,SCT080,0.00,VWS V14.01,2013-04-20 07:35:00,
2013-04-20 00:40:00,45.7,32.2,29.66,WSW,239,4.9,6.3,59,0.00,,SCT080,0.00,VWS V14.01,2013-04-20 07:40:00,
2013-04-20 00:45:00,45.7,31.8,29.66,WSW,253,5.4,5.4,58,0.00,,SCT080,0.00,VWS V14.01,2013-04-20 07:45:00,
2013-04-20 00:50:00,45.5,30.7,29.66,West,268,4.9,4.9,56,0.00,,SCT080,0.00,VWS V14.01,2013-04-20 07:50:00,
2013-04-20 00:55:00,45.5,30.3,29.66,WSW,241,4.0,5.8,55,0.00,,SCT080,0.00,VWS V14.01,2013-04-20 07:55:00,
2013-04-20 01:00:00,45.5,30.3,29.66,WSW,254,3.1,3.1,55,0.00,,CLR,0.00,VWS V14.01,2013-04-20 08:00:00,
2013-04-20 01:05:00,45.3,29.7,29.66,WSW,255,0.0,0.0,54,0.00,,CLR,0.00,VWS V14.01,2013-04-20 08:05:00,
2013-04-20 01:10:00,44.8,29.2,29.66,SW,217,2.7,2.7,54,0.00,,CLR,0.00,VWS V14.01,2013-04-20 08:10:00,
2013-04-20 01:15:00,44.2,29.1,29.66,SW,220,3.6,3.6,55,0.00,,CLR,0.00,VWS V14.01,2013-04-20 08:15:00,
2013-04-20 01:20:00,43.9,29.2,29.66,SW,216,2.2,2.7,56,0.00,,CLR,0.00,VWS V14.01,2013-04-20 08:20:00,
2013-04-20 01:25:00,43.5,28.9,29.66,SW,216,0.0,0.0,56,0.00,,CLR,0.00,VWS V14.01,2013-04-20 08:25:00,
2013-04-20 01:30:00,43.3,29.6,29.66,SW,216,2.7,2.7,58,0.00,,CLR,0.00,VWS V14.01,2013-04-20 08:30:00,
2013-04-20 01:35:00,43.2,29.4,29.66,SW,216,0.0,0.0,58,0.00,,CLR,0.00,VWS V14.01,2013-04-20 08:35:00,
2013-04-20 01:40:00,42.6,29.3,29.66,SW,232,2.7,2.7,59,0.00,,CLR,0.00,VWS V14.01,2013-04-20 08:40:00,
2013-04-20 01:45:00,42.6,29.7,29.66,SW,223,5.8,5.8,60,0.00,,CLR,0.00,VWS V14.01,2013-04-20 08:45:00,
2013-04-20 01:50:00,42.8,29.5,29.66,West,269,5.4,5.4,59,0.00,,CLR,0.00,VWS V14.01,2013-04-20 08:50:00,
2013-04-20 01:55:00,43.0,29.2,29.66,West,261,0.0,0.0,58,0.00,,CLR,0.00,VWS V14.01,2013-04-20 08:55:00,
2013-04-20 02:00:00,42.8,28.6,29.66,West,261,0.0,0.0,57,0.00,,CLR,0.00,VWS V14.01,2013-04-20 09:00:00,
2013-04-20 02:05:00,42.3,28.1,29.66,West,261,0.0,0.0,57,0.00,,FEW085,0.00,VWS V14.01,2013-04-20 09:05:00,
2013-04-20 02:10:00,41.9,28.2,29.66,West,260,6.3,6.3,58,0.00,,FEW085,0.00,VWS V14.01,2013-04-20 09:10:00,
2013-04-20 02:15:00,42.3,29.0,29.66,WSW,238,7.6,7.6,59,0.00,,FEW085,0.00,VWS V14.01,2013-04-20 09:15:00,
2013-04-20 02:20:00,42.8,28.2,29.66,WSW,247,8.1,8.1,56,0.00,,FEW085,0.00,VWS V14.01,2013-04-20 09:20:00,
2013-04-20 02:25:00,43.0,27.0,29.66,WSW,248,6.3,8.7,53,0.00,,FEW085,0.00,VWS V14.01,2013-04-20 09:25:00,
2013-04-20 02:30:00,43.0,26.1,29.66,WSW,250,5.8,5.8,51,0.00,,FEW085,0.00,VWS V14.01,2013-04-20 09:30:00,
2013-04-20 02:35:00,43.0,26.1,29.66,WSW,250,8.1,8.1,51,0.00,,FEW085,0.00,VWS V14.01,2013-04-20 09:35:00,
2013-04-20 02:40:00,43.0,25.6,29.69,SW,231,5.4,5.4,50,0.00,,FEW085,0.00,VWS V14.01,2013-04-20 09:40:00,
2013-04-20 02:45:00,42.8,25.5,29.69,SW,222,3.1,4.0,50,0.00,,FEW085,0.00,VWS V14.01,2013-04-20 09:45:00,
2013-04-20 02:50:00,42.4,25.6,29.69,SW,228,3.6,3.6,51,0.00,,FEW085,0.00,VWS V14.01,2013-04-20 09:50:00,
2013-04-20 02:55:00,42.1,25.3,29.69,WSW,243,4.0,4.0,51,0.00,,FEW085,0.00,VWS V14.01,2013-04-20 09:55:00,
2013-04-20 03:00:00,41.7,25.4,29.69,SW,235,3.1,3.1,52,0.00,,BKN085,0.00,VWS V14.01,2013-04-20 10:00:00,
2013-04-20 03:05:00,41.2,25.4,29.69,SW,234,2.7,3.6,53,0.00,,BKN085,0.00,VWS V14.01,2013-04-20 10:05:00,
2013-04-20 03:10:00,41.0,26.1,29.69,SSW,202,3.1,3.1,55,0.00,,BKN085,0.00,VWS V14.01,2013-04-20 10:10:00,
2013-04-20 03:15:00,40.8,27.2,29.69,SW,229,4.9,4.9,58,0.00,,BKN085,0.00,VWS V14.01,2013-04-20 10:15:00,
2013-04-20 03:20:00,40.6,27.5,29.69,SW,222,3.6,4.0,59,0.00,,BKN085,0.00,VWS V14.01,2013-04-20 10:20:00,
2013-04-20 03:25:00,40.5,27.7,29.69,SW,229,4.9,5.4,60,0.00,,BKN085,0.00,VWS V14.01,2013-04-20 10:25:00,
2013-04-20 03:30:00,40.1,27.8,29.69,WSW,238,5.4,6.3,61,0.00,,BKN085,0.00,VWS V14.01,2013-04-20 10:30:00,
2013-04-20 03:35:00,40.1,28.5,29.69,WSW,249,5.4,5.4,63,0.00,,BKN085,0.00,VWS V14.01,2013-04-20 10:35:00,
2013-04-20 03:40:00,40.1,28.9,29.69,WSW,252,7.2,7.2,64,0.00,,BKN085,0.00,VWS V14.01,2013-04-20 10:40:00,
2013-04-20 03:45:00,40.3,29.1,29.69,WSW,240,4.9,5.4,64,0.00,,BKN085,0.00,VWS V14.01,2013-04-20 10:45:00,
2013-04-20 03:50:00,40.5,28.9,29.69,WSW,244,5.4,5.4,63,0.00,,BKN085,0.00,VWS V14.01,2013-04-20 10:50:00,
2013-04-20 03:55:00,40.5,28.5,29.69,SW,220,4.0,5.8,62,0.00,,BKN085,0.00,VWS V14.01,2013-04-20 10:55:00,
2013-04-20 04:00:00,40.5,28.5,29.69,WSW,243,5.4,5.8,62,0.00,,SCT085,0.00,VWS V14.01,2013-04-20 11:00:00,
2013-04-20 04:05:00,40.5,28.1,29.69,SW,229,3.1,3.1,61,0.00,,SCT085,0.00,VWS V14.01,2013-04-20 11:05:00,
2013-04-20 04:10:00,40.5,28.1,29.69,SSW,201,4.9,5.8,61,0.00,,SCT085,0.00,VWS V14.01,2013-04-20 11:10:00,
2013-04-20 04:15:00,40.6,28.3,29.69,SW,224,4.9,4.9,61,0.00,,SCT085,0.00,VWS V14.01,2013-04-20 11:15:00,
2013-04-20 04:20:00,40.6,28.3,29.69,WSW,238,6.3,6.7,61,0.00,,SCT085,0.00,VWS V14.01,2013-04-20 11:20:00,
2013-04-20 04:25:00,40.5,28.1,29.72,SW,236,5.4,6.7,61,0.00,,SCT085,0.00,VWS V14.01,2013-04-20 11:25:00,
2013-04-20 04:30:00,40.3,27.9,29.72,SW,234,4.9,6.3,61,0.00,,SCT085,0.00,VWS V14.01,2013-04-20 11:30:00,
2013-04-20 04:35:00,40.3,28.3,29.72,WSW,256,11.0,11.0,62,0.00,,SCT085,0.00,VWS V14.01,2013-04-20 11:35:00,
2013-04-20 04:40:00,40.5,28.5,29.72,SW,223,6.3,10.5,62,0.00,,SCT085,0.00,VWS V14.01,2013-04-20 11:40:00,
2013-04-20 04:45:00,41.0,28.6,29.72,WSW,250,8.1,8.1,61,0.00,,SCT085,0.00,VWS V14.01,2013-04-20 11:45:00,
2013-04-20 04:50:00,41.2,28.4,29.72,WSW,243,7.6,8.1,60,0.00,,SCT085,0.00,VWS V14.01,2013-04-20 11:50:00,
2013-04-20 04:55:00,41.4,27.7,29.72,West,263,8.1,10.1,58,0.00,,SCT085,0.00,VWS V14.01,2013-04-20 11:55:00,
2013-04-20 05:00:00,41.7,27.6,29.72,West,265,8.1,10.5,57,0.00,,FEW080,0.00,VWS V14.01,2013-04-20 12:00:00,
2013-04-20 05:05:00,41.5,27.0,29.72,WSW,242,10.1,10.5,56,0.00,,FEW080,0.00,VWS V14.01,2013-04-20 12:05:00,
2013-04-20 05:10:00,41.5,27.5,29.72,WSW,251,6.7,8.1,57,0.00,,FEW080,0.00,VWS V14.01,2013-04-20 12:10:00,
2013-04-20 05:15:00,41.4,27.3,29.72,WSW,244,4.0,6.3,57,0.00,,FEW080,0.00,VWS V14.01,2013-04-20 12:15:00,
2013-04-20 05:20:00,41.2,27.1,29.72,SSW,212,6.3,10.5,57,0.00,,FEW080,0.00,VWS V14.01,2013-04-20 12:20:00,
2013-04-20 05:25:00,41.0,27.4,29.72,WSW,245,5.8,8.3,58,0.00,,FEW080,0.00,VWS V14.01,2013-04-20 12:25:00,
2013-04-20 05:30:00,40.6,27.5,29.72,WSW,249,7.6,7.6,59,0.00,,FEW080,0.00,VWS V14.01,2013-04-20 12:30:00,
2013-04-20 05:35:00,40.3,27.5,29.72,WSW,246,8.1,8.3,60,0.00,,FEW080,0.00,VWS V14.01,2013-04-20 12:35:00,
2013-04-20 05:40:00,40.3,28.3,29.72,SW,218,11.0,11.0,62,0.00,,FEW080,0.00,VWS V14.01,2013-04-20 12:40:00,
2013-04-20 05:45:00,40.1,28.5,29.72,SW,228,6.7,10.1,63,0.00,,FEW080,0.00,VWS V14.01,2013-04-20 12:45:00,
2013-04-20 05:50:00,39.9,28.4,29.72,WSW,246,8.7,8.7,63,0.00,,FEW080,0.00,VWS V14.01,2013-04-20 12:50:00,
2013-04-20 05:55:00,39.7,28.6,29.72,West,267,7.6,7.6,64,0.00,,FEW080,0.00,VWS V14.01,2013-04-20 12:55:00,
2013-04-20 06:00:00,39.7,29.0,29.72,WSW,238,4.9,5.8,65,0.00,,SHRA,0.00,VWS V14.01,2013-04-20 13:00:00,
2013-04-20 06:05:00,39.7,29.3,29.72,WSW,245,5.8,6.3,66,0.00,,SHRA,0.00,VWS V14.01,2013-04-20 13:05:00,
2013-04-20 06:10:00,39.6,28.8,29.72,WSW,238,8.3,9.6,65,0.00,,SHRA,0.00,VWS V14.01,2013-04-20 13:10:00,
2013-04-20 06:15:00,39.6,29.1,29.72,SW,224,4.9,5.4,66,0.00,,SHRA,0.00,VWS V14.01,2013-04-20 13:15:00,
2013-04-20 06:20:00,39.4,29.4,29.72,SW,234,3.6,5.8,67,0.00,,SHRA,0.00,VWS V14.01,2013-04-20 13:20:00,
2013-04-20 06:25:00,39.4,29.4,29.75,SW,234,4.0,5.8,67,0.00,,SHRA,0.00,VWS V14.01,2013-04-20 13:25:00,
2013-04-20 06:30:00,39.4,29.4,29.75,WSW,240,5.8,6.3,67,0.00,,SHRA,0.00,VWS V14.01,2013-04-20 13:30:00,
2013-04-20 06:35:00,39.6,29.5,29.75,SW,222,5.8,7.6,67,0.00,,SHRA,0.00,VWS V14.01,2013-04-20 13:35:00,
2013-04-20 06:40:00,39.7,29.3,29.75,SW,232,8.7,9.2,66,0.00,,SHRA,0.00,VWS V14.01,2013-04-20 13:40:00,
2013-04-20 06:45:00,40.3,29.5,29.75,WSW,239,7.6,7.6,65,0.00,,SHRA,0.00,VWS V14.01,2013-04-20 13:45:00,
2013-04-20 06:50:00,41.0,29.8,29.75,WSW,248,10.1,10.1,64,0.00,,SHRA,0.00,VWS V14.01,2013-04-20 13:50:00,
2013-04-20 06:55:00,41.9,29.0,29.75,West,259,8.1,8.1,60,0.00,,SHRA,0.00,VWS V14.01,2013-04-20 13:55:00,
2013-04-20 07:00:00,42.4,28.3,29.75,SW,229,5.4,8.1,57,0.00,,BKN095,0.00,VWS V14.01,2013-04-20 14:00:00,
2013-04-20 07:05:00,42.6,27.6,29.75,SW,232,7.6,8.1,55,0.00,,BKN095,0.00,VWS V14.01,2013-04-20 14:05:00,
2013-04-20 07:10:00,42.8,27.3,29.75,WSW,254,10.1,10.1,54,0.00,,BKN095,0.00,VWS V14.01,2013-04-20 14:10:00,
2013-04-20 07:15:00,42.8,26.9,29.75,WSW,249,8.3,8.3,53,0.00,,BKN095,0.00,VWS V14.01,2013-04-20 14:15:00,
2013-04-20 07:20:00,43.0,26.6,29.75,WSW,237,8.3,10.5,52,0.00,,BKN095,0.00,VWS V14.01,2013-04-20 14:20:00,
2013-04-20 07:25:00,43.2,26.7,29.75,SW,219,8.1,10.1,52,0.00,,BKN095,0.00,VWS V14.01,2013-04-20 14:25:00,
2013-04-20 07:30:00,43.2,26.7,29.75,SW,233,6.3,7.6,52,0.00,,BKN095,0.00,VWS V14.01,2013-04-20 14:30:00,
2013-04-20 07:35:00,43.2,26.7,29.75,West,262,8.7,11.0,52,0.00,,BKN095,0.00,VWS V14.01,2013-04-20 14:35:00,
2013-04-20 07:40:00,43.3,26.9,29.75,SW,229,4.0,5.4,52,0.00,,BKN095,0.00,VWS V14.01,2013-04-20 14:40:00,
2013-04-20 07:45:00,43.7,27.2,29.75,WSW,239,4.9,7.6,52,0.00,,BKN095,0.00,VWS V14.01,2013-04-20 14:45:00,
2013-04-20 07:50:00,44.1,27.6,29.75,SW,227,7.6,7.6,52,0.00,,BKN095,0.00,VWS V14.01,2013-04-20 14:50:00,
2013-04-20 07:55:00,44.4,27.4,29.75,SW,223,6.3,8.1,51,0.00,,BKN095,0.00,VWS V14.01,2013-04-20 14:55:00,
2013-04-20 08:00:00,44.6,27.6,29.75,WSW,243,5.8,5.8,51,0.00,,BKN095,0.00,VWS V14.01,2013-04-20 15:00:00,
2013-04-20 08:05:00,45.3,27.8,29.75,WSW,237,6.7,6.7,50,0.00,,BKN095,0.00,VWS V14.01,2013-04-20 15:05:00,
2013-04-20 08:10:00,45.5,27.5,29.75,SW,233,6.7,6.7,49,0.00,,BKN095,0.00,VWS V14.01,2013-04-20 15:10:00,
2013-04-20 08:15:00,45.5,26.5,29.75,SW,232,11.0,11.0,47,0.00,,BKN095,0.00,VWS V14.01,2013-04-20 15:15:00,
2013-04-20 08:20:00,45.5,27.0,29.75,WSW,240,12.8,12.8,48,0.00,,BKN095,0.00,VWS V14.01,2013-04-20 15:20:00,
2013-04-20 08:25:00,45.7,27.1,29.75,West,261,8.7,8.7,48,0.00,,BKN095,0.00,VWS V14.01,2013-04-20 15:25:00,
2013-04-20 08:30:00,45.7,27.1,29.75,WSW,250,5.8,8.7,48,0.00,,BKN095,0.00,VWS V14.01,2013-04-20 15:30:00,
2013-04-20 08:35:00,45.9,27.3,29.75,WSW,257,5.8,8.1,48,0.00,,BKN095,0.00,VWS V14.01,2013-04-20 15:35:00,
2013-04-20 08:40:00,46.0,27.5,29.78,WSW,248,5.8,8.3,48,0.00,,BKN095,0.00,VWS V14.01,2013-04-20 15:40:00,
2013-04-20 08:45:00,45.9,27.3,29.78,WSW,245,8.3,8.3,48,0.00,,BKN095,0.00,VWS V14.01,2013-04-20 15:45:00,
2013-04-20 08:50:00,46.0,27.5,29.78,WSW,246,8.1,8.1,48,0.00,,BKN095,0.00,VWS V14.01,2013-04-20 15:50:00,
2013-04-20 08:55:00,46.0,27.5,29.78,SW,225,10.5,11.9,48,0.00,,BKN095,0.00,VWS V14.01,2013-04-20 15:55:00,
2013-04-20 09:00:00,46.2,27.6,29.78,WSW,245,8.7,8.7,48,0.00,,BKN095,0.00,VWS V14.01,2013-04-20 16:00:00,
2013-04-20 09:05:00,46.8,28.1,29.78,SW,232,10.5,10.5,48,0.00,,BKN095,0.00,VWS V14.01,2013-04-20 16:05:00,
2013-04-20 09:10:00,46.9,27.3,29.78,West,266,10.5,12.3,46,0.00,,BKN095,0.00,VWS V14.01,2013-04-20 16:10:00,
2013-04-20 09:15:00,46.9,27.3,29.78,WSW,247,8.7,11.0,46,0.00,,BKN095,0.00,VWS V14.01,2013-04-20 16:15:00,
2013-04-20 09:20:00,47.3,27.0,29.78,West,264,9.6,9.6,45,0.00,,BKN095,0.00,VWS V14.01,2013-04-20 16:20:00,
2013-04-20 09:25:00,47.7,27.9,29.78,SW,223,10.5,10.5,46,0.00,,BKN095,0.00,VWS V14.01,2013-04-20 16:25:00,
2013-04-20 09:30:00,47.7,27.4,29.78,WSW,239,8.3,8.3,45,0.00,,BKN095,0.00,VWS V14.01,2013-04-20 16:30:00,
2013-04-20 09:35:00,48.2,27.3,29.78,WSW,237,8.1,10.1,44,0.00,,BKN095,0.00,VWS V14.01,2013-04-20 16:35:00,
2013-04-20 09:40:00,48.6,27.6,29.75,SW,231,8.3,8.3,44,0.00,,BKN095,0.00,VWS V14.01,2013-04-20 16:40:00,
2013-04-20 09:45:00,49.1,27.6,29.75,West,259,10.5,10.5,43,0.00,,BKN095,0.00,VWS V14.01,2013-04-20 16:45:00,
2013-04-20 09:50:00,49.5,27.3,29.75,WSW,242,8.1,10.1,42,0.00,,BKN095,0.00,VWS V14.01,2013-04-20 16:50:00,
2013-04-20 09:55:00,49.8,27.7,29.75,SW,232,8.7,11.4,42,0.00,,BKN095,0.00,VWS V14.01,2013-04-20 16:55:00,
2013-04-20 10:00:00,50.4,27.6,29.75,West,267,5.4,8.7,41,0.00,,BKN200,0.00,VWS V14.01,2013-04-20 17:00:00,
2013-04-20 10:05:00,51.1,27.6,29.75,SSW,203,12.8,12.8,40,0.00,,BKN200,0.00,VWS V14.01,2013-04-20 17:05:00,
2013-04-20 10:10:00,51.4,28.5,29.75,WSW,239,13.2,13.2,41,0.00,,BKN200,0.00,VWS V14.01,2013-04-20 17:10:00,
2013-04-20 10:15:00,52.9,28.6,29.75,West,274,10.1,10.1,39,0.00,,BKN200,0.00,VWS V14.01,2013-04-20 17:15:00,
2013-04-20 10:20:00,52.7,27.8,29.75,WSW,244,12.8,12.8,38,0.00,,BKN200,0.00,VWS V14.01,2013-04-20 17:20:00,
2013-04-20 10:25:00,52.9,28.0,29.78,West,273,13.2,13.2,38,0.00,,BKN200,0.00,VWS V14.01,2013-04-20 17:25:00,
2013-04-20 10:30:00,53.2,28.3,29.78,WSW,248,11.0,11.0,38,0.00,,BKN200,0.00,VWS V14.01,2013-04-20 17:30:00,
2013-04-20 10:34:00,54.9,29.8,29.78,SW,225,8.1,12.3,38,0.00,,BKN200,0.00,VWS V14.01,2013-04-20 17:34:00,
2013-04-20 10:39:00,55.9,30.1,29.75,SW,233,8.3,12.3,37,0.00,,BKN200,0.00,VWS V14.01,2013-04-20 17:39:00,
2013-04-20 10:44:00,56.5,29.9,29.75,SW,226,16.3,16.3,36,0.00,,BKN200,0.00,VWS V14.01,2013-04-20 17:44:00,
2013-04-20 10:49:00,56.3,29.7,29.75,SW,221,10.5,12.8,36,0.00,,BKN200,0.00,VWS V14.01,2013-04-20 17:49:00,
2013-04-20 10:54:00,55.6,29.1,29.75,SW,232,8.3,8.3,36,0.00,,BKN200,0.00,VWS V14.01,2013-04-20 17:54:00,
2013-04-20 10:59:00,56.1,29.5,29.75,West,271,13.2,13.2,36,0.00,,BKN200,0.00,VWS V14.01,2013-04-20 17:59:00,
2013-04-20 11:04:00,57.2,29.8,29.75,West,259,10.5,10.5,35,0.00,,BKN200,0.00,VWS V14.01,2013-04-20 18:04:00,
2013-04-20 11:09:00,57.6,30.1,29.75,WSW,240,7.6,10.5,35,0.00,,BKN200,0.00,VWS V14.01,2013-04-20 18:09:00,
2013-04-20 11:14:00,57.6,29.4,29.75,West,276,12.8,12.8,34,0.00,,BKN200,0.00,VWS V14.01,2013-04-20 18:14:00,
2013-04-20 11:19:00,57.2,29.8,29.75,WNW,290,11.0,11.0,35,0.00,,BKN200,0.00,VWS V14.01,2013-04-20 18:19:00,
2013-04-20 11:24:00,57.7,30.3,29.75,West,277,3.6,3.6,35,0.00,,BKN200,0.00,VWS V14.01,2013-04-20 18:24:00,
2013-04-20 11:29:00,58.5,30.2,29.75,SW,217,10.5,13.2,34,0.00,,BKN200,0.00,VWS V14.01,2013-04-20 18:29:00,
2013-04-20 11:34:00,58.5,30.2,29.75,West,261,11.0,14.5,34,0.00,,BKN200,0.00,VWS V14.01,2013-04-20 18:34:00,
2013-04-20 11:39:00,58.3,28.6,29.75,WSW,254,10.1,10.1,32,0.00,,BKN200,0.00,VWS V14.01,2013-04-20 18:39:00,
2013-04-20 11:44:00,58.5,28.0,29.75,West,265,10.5,10.5,31,0.00,,BKN200,0.00,VWS V14.01,2013-04-20 18:44:00,
2013-04-20 11:49:00,58.5,28.0,29.75,West,268,12.3,12.3,31,0.00,,BKN200,0.00,VWS V14.01,2013-04-20 18:49:00,
2013-04-20 11:54:00,57.4,27.0,29.75,WSW,244,11.0,11.0,31,0.00,,BKN200,0.00,VWS V14.01,2013-04-20 18:54:00,
2013-04-20 11:59:00,56.5,27.8,29.75,WNW,302,10.5,10.5,33,0.00,,BKN200,0.00,VWS V14.01,2013-04-20 18:59:00,
2013-04-20 12:04:00,57.4,27.8,29.75,West,270,13.2,17.0,32,0.00,,BKN200,0.00,VWS V14.01,2013-04-20 19:04:00,
2013-04-20 12:09:00,58.1,27.6,29.75,West,277,12.8,15.0,31,0.00,,BKN200,0.00,VWS V14.01,2013-04-20 19:09:00,
2013-04-20 12:14:00,58.5,27.2,29.75,West,264,8.7,11.9,30,0.00,,BKN200,0.00,VWS V14.01,2013-04-20 19:14:00,
2013-04-20 12:19:00,59.2,27.0,29.75,WSW,251,12.8,12.8,29,0.00,,BKN200,0.00,VWS V14.01,2013-04-20 19:19:00,
2013-04-20 12:24:00,59.4,25.4,29.75,West,263,4.0,15.0,27,0.00,,BKN200,0.00,VWS V14.01,2013-04-20 19:24:00,
2013-04-20 12:29:00,58.8,25.8,29.75,West,262,15.0,15.0,28,0.00,,BKN200,0.00,VWS V14.01,2013-04-20 19:29:00,
2013-04-20 12:34:00,58.8,25.8,29.75,NW,314,5.8,12.8,28,0.00,,BKN200,0.00,VWS V14.01,2013-04-20 19:34:00,
2013-04-20 12:39:00,58.3,24.5,29.72,West,274,6.7,6.7,27,0.00,,BKN200,0.00,VWS V14.01,2013-04-20 19:39:00,
2013-04-20 12:44:00,57.7,24.0,29.72,NW,310,8.1,8.7,27,0.00,,BKN200,0.00,VWS V14.01,2013-04-20 19:44:00,
2013-04-20 12:49:00,57.6,23.9,29.72,West,272,8.7,15.0,27,0.00,,BKN200,0.00,VWS V14.01,2013-04-20 19:49:00,
2013-04-20 12:54:00,57.4,24.6,29.72,WSW,241,6.3,8.1,28,0.00,,BKN200,0.00,VWS V14.01,2013-04-20 19:54:00,
2013-04-20 12:59:00,57.2,24.4,29.72,West,275,8.7,15.0,28,0.00,,BKN200,0.00,VWS V14.01,2013-04-20 19:59:00,
2013-04-20 13:04:00,57.7,25.7,29.72,WSW,238,8.7,10.5,29,0.00,,BKN200,0.00,VWS V14.01,2013-04-20 20:04:00,
2013-04-20 13:09:00,58.6,25.6,29.72,WSW,250,10.1,12.8,28,0.00,,BKN200,0.00,VWS V14.01,2013-04-20 20:09:00,
2013-04-20 13:14:00,59.2,26.1,29.72,West,261,11.4,13.6,28,0.00,,BKN200,0.00,VWS V14.01,2013-04-20 20:14:00,
2013-04-20 13:19:00,60.3,27.0,29.72,West,274,4.0,13.2,28,0.00,,BKN200,0.00,VWS V14.01,2013-04-20 20:19:00,
2013-04-20 13:24:00,60.3,25.3,29.72,WSW,247,8.3,8.3,26,0.00,,BKN200,0.00,VWS V14.01,2013-04-20 20:24:00,
2013-04-20 13:29:00,59.2,24.3,29.72,West,281,3.6,7.2,26,0.00,,BKN200,0.00,VWS V14.01,2013-04-20 20:29:00,
2013-04-20 13:34:00,58.5,24.6,29.72,West,265,11.0,17.0,27,0.00,,BKN200,0.00,VWS V14.01,2013-04-20 20:34:00,
2013-04-20 13:39:00,58.1,23.4,29.72,WSW,242,6.3,15.0,26,0.00,,BKN200,0.00,VWS V14.01,2013-04-20 20:39:00,
2013-04-20 13:44:00,57.7,23.1,29.72,WSW,258,11.0,11.0,26,0.00,,BKN200,0.00,VWS V14.01,2013-04-20 20:44:00,
2013-04-20 13:49:00,58.1,23.4,29.72,WSW,242,12.8,15.0,26,0.00,,BKN200,0.00,VWS V14.01,2013-04-20 20:49:00,
2013-04-20 13:54:00,58.5,24.6,29.72,WSW,249,10.5,16.3,27,0.00,,BKN200,0.00,VWS V14.01,2013-04-20 20:54:00,
2013-04-20 13:59:00,58.8,24.0,29.72,WSW,237,13.2,13.2,26,0.00,,BKN200,0.00,VWS V14.01,2013-04-20 20:59:00,
2013-04-20 14:04:00,58.8,24.0,29.72,West,259,13.2,15.0,26,0.00,,BKN200,0.00,VWS V14.01,2013-04-20 21:04:00,
2013-04-20 14:09:00,58.8,24.0,29.69,WSW,250,8.7,13.2,26,0.00,,BKN200,0.00,VWS V14.01,2013-04-20 21:09:00,
2013-04-20 14:14:00,58.8,24.0,29.69,West,260,12.8,12.8,26,0.00,,BKN200,0.00,VWS V14.01,2013-04-20 21:14:00,
2013-04-20 14:19:00,59.2,24.3,29.69,NW,304,15.4,15.4,26,0.00,,BKN200,0.00,VWS V14.01,2013-04-20 21:19:00,
2013-04-20 14:24:00,59.5,23.7,29.69,West,261,10.5,15.4,25,0.00,,BKN200,0.00,VWS V14.01,2013-04-20 21:24:00,
2013-04-20 14:29:00,59.7,23.9,29.69,West,270,8.3,12.8,25,0.00,,BKN200,0.00,VWS V14.01,2013-04-20 21:29:00,
2013-04-20 14:34:00,59.9,24.0,29.69,WSW,239,18.8,18.8,25,0.00,,BKN200,0.00,VWS V14.01,2013-04-20 21:34:00,
2013-04-20 14:39:00,60.1,24.2,29.69,West,276,11.0,17.4,25,0.00,,BKN200,0.00,VWS V14.01,2013-04-20 21:39:00,
2013-04-20 14:44:00,60.6,24.6,29.69,West,269,10.1,14.5,25,0.00,,BKN200,0.00,VWS V14.01,2013-04-20 21:44:00,
2013-04-20 14:49:00,60.6,24.6,29.69,SW,227,17.4,22.4,25,0.00,,BKN200,0.00,VWS V14.01,2013-04-20 21:49:00,
2013-04-20 14:54:00,60.3,24.3,29.69,WNW,296,5.8,18.3,25,0.00,,BKN200,0.00,VWS V14.01,2013-04-20 21:54:00,
2013-04-20 14:59:00,60.8,24.8,29.69,West,260,17.4,17.4,25,0.00,,BKN200,0.00,VWS V14.01,2013-04-20 21:59:00,
2013-04-20 15:04:00,61.0,24.9,29.69,WSW,248,12.8,12.8,25,0.00,,BKN200,0.00,VWS V14.01,2013-04-20 22:04:00,
2013-04-20 15:09:00,61.2,25.1,29.69,WNW,285,12.8,12.8,25,0.00,,BKN200,0.00,VWS V14.01,2013-04-20 22:09:00,
2013-04-20 15:14:00,61.2,25.1,29.69,WNW,294,10.5,13.2,25,0.00,,BKN200,0.00,VWS V14.01,2013-04-20 22:14:00,
2013-04-20 15:19:00,60.8,23.8,29.69,West,278,13.2,14.5,24,0.00,,BKN200,0.00,VWS V14.01,2013-04-20 22:19:00,
2013-04-20 15:24:00,60.6,24.6,29.69,West,268,13.2,16.8,25,0.00,,BKN200,0.00,VWS V14.01,2013-04-20 22:24:00,
2013-04-20 15:29:00,60.8,24.8,29.69,SW,231,13.2,19.7,25,0.00,,BKN200,0.00,VWS V14.01,2013-04-20 22:29:00,
2013-04-20 15:34:00,61.0,24.9,29.69,WSW,240,17.4,17.4,25,0.00,,BKN200,0.00,VWS V14.01,2013-04-20 22:34:00,
2013-04-20 15:39:00,61.2,24.1,29.69,WSW,248,15.4,23.3,24,0.00,,BKN200,0.00,VWS V14.01,2013-04-20 22:39:00,
2013-04-20 15:44:00,61.0,24.0,29.69,West,261,18.3,18.3,24,0.00,,BKN200,0.00,VWS V14.01,2013-04-20 22:44:00,
2013-04-20 15:49:00,60.6,24.6,29.69,WSW,258,14.5,15.4,25,0.00,,BKN200,0.00,VWS V14.01,2013-04-20 22:49:00,
2013-04-20 15:54:00,60.8,23.8,29.66,West,270,14.5,15.4,24,0.00,,BKN200,0.00,VWS V14.01,2013-04-20 22:54:00,
2013-04-20 15:59:00,61.5,24.4,29.66,West,272,11.9,12.8,24,0.00,,SHRA,0.00,VWS V14.01,2013-04-20 22:59:00,
2013-04-20 16:04:00,61.2,24.1,29.66,WSW,248,17.9,18.8,24,0.00,,SHRA,0.00,VWS V14.01,2013-04-20 23:04:00,
2013-04-20 16:09:00,61.0,24.0,29.66,West,268,14.5,17.4,24,0.00,,SHRA,0.00,VWS V14.01,2013-04-20 23:09:00,
2013-04-20 16:14:00,61.0,24.0,29.66,WSW,257,15.0,15.4,24,0.00,,SHRA,0.00,VWS V14.01,2013-04-20 23:14:00,
2013-04-20 16:19:00,60.6,23.6,29.66,West,261,11.0,11.0,24,0.00,,SHRA,0.00,VWS V14.01,2013-04-20 23:19:00,
2013-04-20 16:24:00,60.4,23.5,29.66,West,262,17.4,17.4,24,0.00,,SHRA,0.00,VWS V14.01,2013-04-20 23:24:00,
2013-04-20 16:29:00,60.1,23.2,29.66,West,261,16.8,16.8,24,0.00,,SHRA,0.00,VWS V14.01,2013-04-20 23:29:00,
2013-04-20 16:34:00,60.3,23.4,29.66,West,274,12.8,12.8,24,0.00,,SHRA,0.00,VWS V14.01,2013-04-20 23:34:00,
2013-04-20 16:39:00,60.4,23.5,29.66,West,270,15.0,17.9,24,0.00,,SHRA,0.00,VWS V14.01,2013-04-20 23:39:00,
2013-04-20 16:44:00,60.4,23.5,29.66,West,262,10.1,10.1,24,0.00,,SHRA,0.00,VWS V14.01,2013-04-20 23:44:00,
2013-04-20 16:49:00,60.4,23.5,29.66,WSW,258,22.4,22.4,24,0.00,,SHRA,0.00,VWS V14.01,2013-04-20 23:49:00,
2013-04-20 16:54:00,60.1,23.2,29.66,WNW,284,9.2,15.4,24,0.00,,SHRA,0.00,VWS V14.01,2013-04-20 23:54:00,
2013-04-20 16:59:00,59.9,23.0,29.66,West,260,17.0,17.0,24,0.00,,BKN200,0.00,VWS V14.01,2013-04-20 23:59:00,
2013-04-20 17:04:00,59.7,22.9,29.66,West,266,5.8,10.1,24,0.00,,BKN200,0.00,VWS V14.01,2013-04-21 00:04:00,
2013-04-20 17:09:00,59.7,22.9,29.66,West,266,8.1,8.1,24,0.00,,BKN200,0.00,VWS V14.01,2013-04-21 00:09:00,
2013-04-20 17:14:00,59.5,22.7,29.66,WSW,257,10.1,11.0,24,0.00,,BKN200,0.00,VWS V14.01,2013-04-21 00:14:00,
2013-04-20 17:19:00,59.0,22.3,29.66,West,264,20.6,20.6,24,0.00,,BKN200,0.00,VWS V14.01,2013-04-21 00:19:00,
2013-04-20 17:24:00,59.2,22.4,29.66,WSW,241,11.0,15.4,24,0.00,,BKN200,0.00,VWS V14.01,2013-04-21 00:24:00,
2013-04-20 17:29:00,61.3,24.3,29.66,West,269,8.1,8.7,24,0.00,,BKN200,0.00,VWS V14.01,2013-04-21 00:29:00,
2013-04-20 17:34:00,62.1,24.9,29.66,WSW,258,13.6,15.4,24,0.00,,BKN200,0.00,VWS V14.01,2013-04-21 00:34:00,
2013-04-20 17:39:00,63.3,24.9,29.66,WSW,248,20.6,20.6,23,0.00,,BKN200,0.00,VWS V14.01,2013-04-21 00:39:00,
2013-04-20 17:44:00,64.9,22.9,29.66,WSW,254,22.8,22.8,20,0.00,,BKN200,0.00,VWS V14.01,2013-04-21 00:44:00,
2013-04-20 17:49:00,63.7,23.0,29.66,West,265,8.1,8.1,21,0.00,,BKN200,0.00,VWS V14.01,2013-04-21 00:49:00,
2013-04-20 17:54:00,61.9,21.5,29.66,WSW,251,15.4,15.4,21,0.00,,BKN200,0.00,VWS V14.01,2013-04-21 00:54:00,
2013-04-20 17:59:00,63.9,23.2,29.66,West,263,7.6,12.8,21,0.00,,BKN200,0.00,VWS V14.01,2013-04-21 00:59:00,
2013-04-20 18:04:00,65.7,23.5,29.66,WSW,254,8.1,8.1,20,0.00,,BKN200,0.00,VWS V14.01,2013-04-21 01:04:00,
2013-04-20 18:09:00,65.3,23.2,29.66,West,277,8.7,8.7,20,0.00,,BKN200,0.00,VWS V14.01,2013-04-21 01:09:00,
2013-04-20 18:14:00,62.4,22.0,29.66,West,261,14.5,14.5,21,0.00,,BKN200,0.00,VWS V14.01,2013-04-21 01:14:00,
2013-04-20 18:19:00,60.8,20.6,29.66,West,280,16.8,18.8,21,0.00,,BKN200,0.00,VWS V14.01,2013-04-21 01:19:00,
2013-04-20 18:24:00,59.7,22.9,29.66,West,269,17.4,17.4,24,0.00,,BKN200,0.00,VWS V14.01,2013-04-21 01:24:00,
2013-04-20 18:29:00,58.8,22.1,29.66,WSW,256,17.4,17.4,24,0.00,,BKN200,0.00,VWS V14.01,2013-04-21 01:29:00,
2013-04-20 18:34:00,59.4,22.6,29.66,West,263,13.6,15.4,24,0.00,,BKN200,0.00,VWS V14.01,2013-04-21 01:34:00,
2013-04-20 18:39:00,59.4,22.6,29.66,West,277,5.4,5.4,24,0.00,,BKN200,0.00,VWS V14.01,2013-04-21 01:39:00,
2013-04-20 18:44:00,59.5,22.7,29.66,West,271,8.1,8.1,24,0.00,,BKN200,0.00,VWS V14.01,2013-04-21 01:44:00,
2013-04-20 18:49:00,59.5,22.7,29.66,WSW,243,10.5,14.1,24,0.00,,BKN200,0.00,VWS V14.01,2013-04-21 01:49:00,
2013-04-20 18:54:00,59.0,22.3,29.66,WSW,258,8.1,11.0,24,0.00,,BKN200,0.00,VWS V14.01,2013-04-21 01:54:00,
2013-04-20 18:59:00,58.3,21.7,29.66,WSW,250,5.4,11.0,24,0.00,,BKN200,0.00,VWS V14.01,2013-04-21 01:59:00,
2013-04-20 19:04:00,57.9,21.4,29.66,West,268,11.0,12.3,24,0.00,,BKN200,0.00,VWS V14.01,2013-04-21 02:04:00,
2013-04-20 19:09:00,57.4,20.9,29.66,West,262,8.1,8.3,24,0.00,,BKN200,0.00,VWS V14.01,2013-04-21 02:09:00,
2013-04-20 19:14:00,57.0,21.6,29.66,WSW,255,8.3,12.8,25,0.00,,BKN200,0.00,VWS V14.01,2013-04-21 02:14:00,
2013-04-20 19:19:00,57.0,21.6,29.66,West,276,7.6,11.0,25,0.00,,BKN200,0.00,VWS V14.01,2013-04-21 02:19:00,
2013-04-20 19:24:00,56.7,21.3,29.66,West,281,5.4,6.3,25,0.00,,BKN200,0.00,VWS V14.01,2013-04-21 02:24:00,
2013-04-20 19:29:00,56.3,21.0,29.66,WSW,252,7.6,12.8,25,0.00,,BKN200,0.00,VWS V14.01,2013-04-21 02:29:00,
2013-04-20 19:34:00,55.8,20.5,29.66,West,274,7.2,9.2,25,0.00,,BKN200,0.00,VWS V14.01,2013-04-21 02:34:00,
2013-04-20 19:39:00,55.2,18.1,29.66,WNW,301,4.0,4.9,23,0.00,,BKN200,0.00,VWS V14.01,2013-04-21 02:39:00,
2013-04-20 19:44:00,54.9,17.8,29.66,WNW,285,2.7,4.0,23,0.00,,BKN200,0.00,VWS V14.01,2013-04-21 02:44:00,
2013-04-20 19:49:00,54.7,17.6,29.66,WNW,288,4.9,6.7,23,0.00,,BKN200,0.00,VWS V14.01,2013-04-21 02:49:00,
2013-04-20 19:54:00,54.5,17.5,29.66,West,281,4.9,10.1,23,0.00,,BKN200,0.00,VWS V14.01,2013-04-21 02:54:00,
2013-04-20 19:59:00,54.3,17.3,29.66,West,277,9.6,9.6,23,0.00,,BKN200,0.00,VWS V14.01,2013-04-21 02:59:00,
2013-04-20 20:04:00,54.1,17.2,29.66,WNW,284,5.4,8.3,23,0.00,,BKN200,0.00,VWS V14.01,2013-04-21 03:04:00,
2013-04-20 20:09:00,53.8,16.9,29.66,West,279,2.7,4.0,23,0.00,,BKN200,0.00,VWS V14.01,2013-04-21 03:09:00,
2013-04-20 20:14:00,53.4,19.4,29.66,NW,316,6.7,7.6,26,0.00,,BKN200,0.00,VWS V14.01,2013-04-21 03:14:00,
2013-04-20 20:19:00,53.2,16.4,29.66,West,278,6.3,6.3,23,0.00,,BKN200,0.00,VWS V14.01,2013-04-21 03:19:00,
2013-04-20 20:24:00,53.1,19.1,29.66,WNW,285,2.7,2.7,26,0.00,,BKN200,0.00,VWS V14.01,2013-04-21 03:24:00,
2013-04-20 20:29:00,53.1,16.3,29.66,WNW,295,8.7,8.7,23,0.00,,BKN200,0.00,VWS V14.01,2013-04-21 03:29:00,
2013-04-20 20:34:00,52.9,19.0,29.66,NW,315,3.6,4.9,26,0.00,,BKN200,0.00,VWS V14.01,2013-04-21 03:34:00,
2013-04-20 20:39:00,52.7,18.8,29.69,WNW,282,3.6,4.0,26,0.00,,BKN200,0.00,VWS V14.01,2013-04-21 03:39:00,
2013-04-20 20:44:00,52.5,18.6,29.69,West,280,4.0,6.7,26,0.00,,BKN200,0.00,VWS V14.01,2013-04-21 03:44:00,
2013-04-20 20:49:00,52.3,18.5,29.69,NW,314,4.0,4.0,26,0.00,,BKN200,0.00,VWS V14.01,2013-04-21 03:49:00,
2013-04-20 20:54:00,52.2,18.3,29.69,WNW,285,5.8,5.8,26,0.00,,BKN200,0.00,VWS V14.01,2013-04-21 03:54:00,
2013-04-20 20:59:00,52.0,18.2,29.69,West,281,4.0,5.8,26,0.00,,BKN220,0.00,VWS V14.01,2013-04-21 03:59:00,
2013-04-20 21:01:00,51.8,18.0,29.69,West,280,8.1,10.5,26,0.00,,BKN220,0.00,VWS V14.01,2013-04-21 04:01:00,
2013-04-20 21:06:00,51.8,18.0,29.69,West,261,6.3,6.3,26,0.00,,BKN220,0.00,VWS V14.01,2013-04-21 04:06:00,
2013-04-20 21:11:00,51.6,17.9,29.69,WNW,294,3.6,3.6,26,0.00,,BKN220,0.00,VWS V14.01,2013-04-21 04:11:00,
2013-04-20 21:16:00,51.4,17.7,29.69,WNW,299,3.6,4.9,26,0.00,,BKN220,0.00,VWS V14.01,2013-04-21 04:16:00,
2013-04-20 21:21:00,51.4,17.7,29.69,NW,310,5.4,5.4,26,0.00,,BKN220,0.00,VWS V14.01,2013-04-21 04:21:00,
2013-04-20 21:26:00,51.4,17.7,29.69,West,281,5.4,7.6,26,0.00,,BKN220,0.00,VWS V14.01,2013-04-21 04:26:00,
2013-04-20 21:31:00,51.4,17.7,29.69,West,276,5.4,7.6,26,0.00,,BKN220,0.00,VWS V14.01,2013-04-21 04:31:00,
2013-04-20 21:36:00,51.4,17.7,29.69,WNW,286,6.3,6.3,26,0.00,,BKN220,0.00,VWS V14.01,2013-04-21 04:36:00,
2013-04-20 21:41:00,51.4,17.7,29.69,WNW,293,4.0,7.6,26,0.00,,BKN220,0.00,VWS V14.01,2013-04-21 04:41:00,
2013-04-20 21:46:00,51.4,17.7,29.69,WNW,297,3.6,3.6,26,0.00,,BKN220,0.00,VWS V14.01,2013-04-21 04:46:00,
2013-04-20 21:51:00,51.3,17.6,29.69,NW,314,5.4,12.8,26,0.00,,BKN220,0.00,VWS V14.01,2013-04-21 04:51:00,
2013-04-20 21:56:00,51.1,17.4,29.69,WNW,296,4.0,6.7,26,0.00,,BKN220,0.00,VWS V14.01,2013-04-21 04:56:00,
2013-04-20 22:01:00,50.9,17.2,29.69,NW,322,2.7,5.4,26,0.00,,OVC210,0.00,VWS V14.01,2013-04-21 05:01:00,
2013-04-20 22:06:00,50.7,17.1,29.69,WSW,258,3.6,3.6,26,0.00,,OVC210,0.00,VWS V14.01,2013-04-21 05:06:00,
2013-04-20 22:11:00,50.4,16.8,29.69,WNW,282,4.0,6.3,26,0.00,,OVC210,0.00,VWS V14.01,2013-04-21 05:11:00,
2013-04-20 22:16:00,50.2,16.6,29.69,NW,324,3.6,4.0,26,0.00,,OVC210,0.00,VWS V14.01,2013-04-21 05:16:00,
2013-04-20 22:21:00,50.2,16.6,29.69,NW,310,0.0,3.6,26,0.00,,OVC210,0.00,VWS V14.01,2013-04-21 05:21:00,
2013-04-20 22:26:00,50.0,16.5,29.69,NW,324,6.3,6.3,26,0.00,,OVC210,0.00,VWS V14.01,2013-04-21 05:26:00,
2013-04-20 22:31:00,50.0,16.5,29.69,NW,321,3.1,5.8,26,0.00,,OVC210,0.00,VWS V14.01,2013-04-21 05:31:00,
2013-04-20 22:36:00,49.6,17.0,29.69,NW,326,3.6,3.6,27,0.00,,OVC210,0.00,VWS V14.01,2013-04-21 05:36:00,
2013-04-20 22:41:00,49.5,16.9,29.72,WNW,283,3.1,4.9,27,0.00,,OVC210,0.00,VWS V14.01,2013-04-21 05:41:00,
2013-04-20 22:46:00,49.3,16.7,29.72,West,272,3.6,4.9,27,0.00,,OVC210,0.00,VWS V14.01,2013-04-21 05:46:00,
2013-04-20 22:51:00,48.9,16.4,29.72,West,278,3.1,5.8,27,0.00,,OVC210,0.00,VWS V14.01,2013-04-21 05:51:00,
2013-04-20 22:56:00,48.7,16.3,29.72,WNW,297,2.7,5.4,27,0.00,,OVC210,0.00,VWS V14.01,2013-04-21 05:56:00,
2013-04-20 23:01:00,48.4,16.0,29.72,WNW,283,5.4,8.1,27,0.00,,BKN210,0.00,VWS V14.01,2013-04-21 06:01:00,
2013-04-20 23:06:00,48.0,16.5,29.72,WSW,241,3.1,3.1,28,0.00,,BKN210,0.00,VWS V14.01,2013-04-21 06:06:00,
2013-04-20 23:11:00,47.5,16.0,29.72,WSW,243,2.7,4.0,28,0.00,,BKN210,0.00,VWS V14.01,2013-04-21 06:11:00,
2013-04-20 23:16:00,46.9,15.6,29.72,WSW,237,2.2,2.2,28,0.00,,BKN210,0.00,VWS V14.01,2013-04-21 06:16:00,
2013-04-20 23:21:00,46.2,15.7,29.72,WSW,237,0.0,0.0,29,0.00,,BKN210,0.00,VWS V14.01,2013-04-21 06:21:00,
2013-04-20 23:26:00,45.9,15.4,29.72,WSW,237,0.0,0.0,29,0.00,,BKN210,0.00,VWS V14.01,2013-04-21 06:26:00,
2013-04-20 23:31:00,45.5,15.1,29.72,WSW,237,0.0,0.0,29,0.00,,BKN210,0.00,VWS V14.01,2013-04-21 06:31:00,
2013-04-20 23:36:00,45.1,15.6,29.72,WSW,237,0.0,0.0,30,0.00,,BKN210,0.00,VWS V14.01,2013-04-21 06:36:00,
2013-04-20 23:41:00,44.1,15.4,29.72,WSW,237,0.0,0.0,31,0.00,,BKN210,0.00,VWS V14.01,2013-04-21 06:41:00,
2013-04-20 23:46:00,43.7,15.1,29.72,WSW,237,0.0,0.0,31,0.00,,BKN210,0.00,VWS V14.01,2013-04-21 06:46:00,
2013-04-20 23:51:00,43.3,16.2,29.72,WSW,237,0.0,0.0,33,0.00,,BKN210,0.00,VWS V14.01,2013-04-21 06:51:00,
2013-04-20 23:56:00,43.0,15.9,29.72,WSW,237,0.0,0.0,33,0.00,,BKN210,0.00,VWS V14.01,2013-04-21 06:56:00,